Vertical_Velocity
1 1 -14 -1 9 2 2 0 1 -0 0 1 1 2 1 -0 -0 1 1 -1 2 5 -2 -0 -1 -2 -1 -1 -1 -1 0 1 1 0 -0 -1 -0 1 1 0 -0 0 0 1
3 -14 5 6 1 0 2 1 0 1 0 1 -0 5 0 -3 -2 0 -0 -0 2 -1 -1 2 1 1 1 0 -1 -0 0 0 0 0 1 1 0 -0 0 0 -0 -0 0 1
0 -3 2 2 2 0 1 -2 -0 2 1 0 1 -3 -2 -2 -2 -0 -1 -1 2 3 1 -1 1 2 0 1 1 1 1 -1 -0 1 1 1 1 2 2 2 2 1 0 0
3 -0 0 3 1 6 5 2 2 1 5 -1 2 -6 0 -1 2 -1 -1 1 1 2 3 2 -1 2 2 1 -0 -0 0 0 0 2 1 0 -0 -1 -1 -1 -0 0 0 0
-3 -1 1 0 -1 3 -7 1 3 2 2 4 -0 1 -9 -1 -2 -0 -0 1 2 -0 1 5 4 2 1 -0 1 0 -0 -1 -0 1 0 1 0 0 0 1 1 0 0 0
0 -0 1 -0 1 1 3 2 3 3 3 3 -0 1 -4 -1 -3 -0 1 1 1 1 1 3 3 2 1 0 2 2 1 0 -0 0 1 1 1 1 1 1 1 1 0 1
0 -0 1 2 3 3 3 4 1 2 3 -3 0 3 -10 2 -0 0 2 1 1 -1 -1 0 1 3 2 2 2 1 2 3 1 1 2 0 0 1 0 1 1 0 -0 0
-2 3 3 -1 -2 1 0 2 -4 -4 -1 0 1 -4 -9 -1 0 -0 1 0 -1 -1 1 2 2 2 2 1 1 2 2 1 1 1 0 1 1 2 1 1 1 1 0 -1
-2 1 2 2 3 4 -3 -2 3 -1 -1 0 -2 -1 0 -1 -0 1 1 1 0 0 1 2 2 2 1 1 1 0 0 0 1 0 0 1 0 1 0 -1 -1 1 1 1
0 -1 -0 1 3 1 1 2 -0 -0 0 1 0 -2 -2 -1 -1 -0 0 -0 -1 0 0 1 1 -0 -0 -1 -0 0 -0 -0 -0 -0 -0 -0 0 1 0 0 2 1 1 1
2 5 -0 4 -4 -0 -0 -3 -0 0 -2 -1 -0 -2 -2 -1 -0 0 -2 -1 -1 0 1 1 0 -0 -0 -0 -0 0 -0 -0 -0 -0 -0 -0 -0 -0 -0 0 0 1 0 1
3 3 1 -3 1 1 0 0 4 0 -3 -1 -1 -4 -1 -1 0 -1 -1 -1 -0 1 1 0 0 1 1 0 1 1 0 -1 -1 -1 0 1 0 0 -0 -0 -0 -0 1 1
1 2 -0 1 -1 -1 -2 -3 -0 2 3 -3 -2 -4 -1 -1 -1 -1 -0 -1 0 0 0 -1 -1 -0 0 0 0 -0 -0 -0 -0 -2 -1 -0 0 1 1 1 1 2 0 -0
6 1 -1 -7 -1 0 -5 -1 2 4 1 -4 -10 -1 -3 -2 -2 -2 -3 -1 -1 -1 -1 -1 -1 -1 -1 -1 -1 -1 -2 -1 -1 -1 -1 -1 -1 -0 -1 0 -0 0 1 1
2 -2 1 0 0 -1 -0 0 1 -8 1 -2 -7 -3 -1 -1 0 1 -0 -2 -1 -1 -1 -1 -0 -0 -1 -1 -1 -0 -1 -1 -1 -1 -1 -0 -1 -0 -1 -0 -1 0 0 1
0 -3 -1 1 -5 -3 1 1 0 -0 -2 -1 3 -6 -0 2 0 -2 2 0 1 1 2 2 1 2 1 1 -1 -1 -0 -1 -1 -1 -2 -1 0 0 -1 -1 -1 -2 -2 -1
0 2 1 -3 2 3 2 -18 -4 1 1 4 -9 8 5 -0 0 1 2 1 0 1 -0 -0 -0 -0 -1 -1 0 0 0 0 -0 -0 0 0 -1 -1 -1 -1 -1 -2 -0 -2
-1 3 5 -0 1 1 -6 -1 1 2 5 2 2 3 2 1 2 4 2 2 1 3 2 1 0 -1 -0 1 0 -1 -1 -1 -1 -3 -2 -2 -2 -1 -2 -2 -3 -3 -5 -3
2 3 -1 -1 -1 -3 -4 -5 -2 -0 3 1 0 1 2 3 3 1 1 2 1 2 2 1 -0 -1 -0 1 0 -0 -1 -1 -1 -2 -1 -2 -2 -1 -3 -2 -1 -1 -3 -3
4 4 3 -0 -0 -2 -2 -1 -2 0 -10 -7 2 -0 0 1 -4 2 2 2 2 1 0 -0 -1 -1 -1 -1 -1 -1 -1 -2 -3 -1 -2 -4 -5 -5 -5 -4 -3 -3 -1 -0
1 2 -2 2 -2 -4 -3 -1 4 6 -13 -4 0 1 1 1 3 4 1 1 1 -0 -1 -2 -2 -1 0 0 0 -1 -1 0 -2 -2 -2 -2 -4 -5 -5 -3 -2 -5 -4 -6
2 0 -3 3 1 -8 -2 3 1 -1 -2 -2 -3 -1 -1 1 1 1 1 0 -0 0 0 0 0 0 1 1 -1 -2 -2 1 -0 -2 -2 -1 -2 -3 -2 -2 -1 -2 -3 -4
-4 -5 -1 -2 0 2 0 1 -0 -0 -0 -1 -2 -2 0 1 2 1 -0 -0 1 1 1 2 2 1 1 -0 -0 -1 -1 -1 -0 -1 -2 -2 -2 -3 -3 -2 -1 -2 -2 -3
-1 1 -1 6 -1 -0 3 3 0 -0 -0 0 1 2 1 1 -0 -2 -3 -3 -1 -1 0 1 2 1 -1 -2 -1 -1 0 -0 -1 -1 -3 -1 0 -1 -2 -2 -1 -3 -3 -3
1 -1 -3 -2 3 1 1 2 2 2 1 -0 0 1 1 -0 -0 -0 0 1 1 1 1 -1 -2 -2 -2 -2 -2 -1 -1 -1 -2 -2 -1 -1 -0 -0 -1 -1 -1 -3 -1 -2
-2 -2 -1 -2 1 -0 1 0 2 1 2 2 1 1 0 0 2 3 2 0 0 -0 -2 -2 -1 -1 -1 -1 -2 -1 -0 -0 1 -1 -0 -2 -2 -1 -1 -1 -2 -2 -3 -0
Height
3101 3102 3099 3103 3106 3106 3107 3108 3108 3110 3111 3111 3112 3113 3114 3115 3116 3117 3118 3120 3121 3122 3123 3124 3125 3126 3127 3128 3129 3131 3132 3134 3135 3137 3138 3139 3141 3143 3145 3146 3148 3150 3152 3154
3097 3094 3099 3101 3101 3102 3103 3104 3105 3106 3106 3108 3108 3109 3110 3110 3112 3113 3114 3115 3116 3117 3118 3119 3121 3122 3124 3125 3126 3127 3129 3130 3131 3133 3135 3136 3138 3140 3142 3143 3145 3147 3149 3150
3090 3092 3093 3095 3096 3097 3098 3099 3101 3103 3103 3104 3104 3103 3104 3105 3106 3107 3108 3109 3111 3112 3113 3115 3116 3118 3119 3121 3122 3124 3125 3126 3127 3129 3131 3133 3135 3137 3139 3140 3141 3143 3145 3147
3086 3086 3088 3090 3090 3093 3093 3095 3096 3098 3100 3100 3100 3098 3096 3097 3098 3100 3101 3102 3104 3105 3107 3109 3111 3113 3115 3116 3117 3118 3120 3122 3123 3125 3127 3129 3130 3132 3134 3135 3137 3139 3141 3143
3079 3080 3082 3085 3086 3088 3089 3091 3093 3094 3095 3096 3095 3097 3091 3092 3092 3092 3094 3095 3096 3098 3101 3103 3106 3108 3109 3110 3112 3114 3115 3117 3119 3120 3122 3124 3127 3129 3130 3132 3134 3136 3137 3140
3075 3077 3078 3080 3082 3084 3086 3088 3090 3091 3092 3091 3087 3091 3086 3085 3086 3086 3087 3089 3090 3092 3095 3097 3099 3101 3103 3105 3107 3109 3111 3113 3115 3116 3118 3120 3122 3124 3126 3128 3130 3131 3133 3135
3070 3072 3073 3076 3078 3080 3081 3084 3087 3089 3089 3082 3081 3084 3081 3077 3079 3080 3082 3082 3084 3086 3089 3091 3093 3096 3099 3101 3103 3105 3106 3108 3110 3112 3114 3116 3117 3119 3121 3123 3124 3126 3128 3130
3064 3068 3067 3068 3071 3073 3074 3078 3077 3077 3078 3076 3078 3075 3070 3072 3073 3075 3077 3078 3079 3081 3084 3086 3089 3093 3095 3097 3099 3100 3102 3103 3105 3107 3109 3111 3112 3114 3116 3118 3120 3121 3123 3124
3058 3060 3059 3061 3065 3070 3070 3071 3073 3073 3075 3075 3071 3069 3067 3067 3067 3069 3072 3074 3076 3078 3081 3084 3086 3089 3091 3093 3095 3097 3098 3100 3101 3103 3105 3106 3108 3110 3111 3112 3114 3116 3117 3118
3054 3055 3055 3058 3061 3063 3064 3066 3070 3071 3072 3069 3065 3064 3060 3061 3063 3065 3067 3070 3073 3076 3078 3081 3083 3085 3088 3090 3092 3093 3095 3096 3097 3099 3100 3102 3103 3104 3105 3107 3108 3109 3110 3112
3049 3052 3053 3054 3054 3055 3058 3058 3061 3062 3062 3059 3058 3057 3055 3058 3059 3062 3065 3068 3070 3072 3075 3077 3079 3082 3084 3085 3087 3089 3091 3093 3094 3096 3097 3098 3099 3100 3101 3102 3102 3103 3104 3104
3044 3046 3047 3048 3048 3050 3051 3052 3055 3055 3057 3055 3055 3054 3053 3054 3056 3059 3062 3064 3067 3069 3071 3074 3076 3078 3080 3082 3084 3086 3088 3089 3091 3092 3093 3094 3095 3095 3096 3096 3096 3096 3097 3097
3038 3040 3042 3045 3047 3044 3044 3045 3047 3049 3049 3049 3052 3050 3050 3052 3054 3056 3059 3062 3064 3066 3069 3071 3073 3075 3078 3079 3081 3082 3084 3085 3086 3087 3087 3087 3087 3088 3088 3089 3089 3089 3090 3090
3033 3033 3033 3034 3033 3035 3036 3037 3040 3043 3044 3043 3042 3045 3046 3048 3050 3053 3055 3058 3061 3063 3065 3068 3070 3072 3073 3075 3076 3077 3078 3078 3078 3078 3078 3079 3079 3079 3079 3080 3080 3080 3081 3081
3029 3028 3030 3030 3030 3032 3032 3032 3033 3034 3037 3038 3038 3040 3043 3045 3047 3049 3051 3054 3056 3058 3061 3063 3065 3066 3067 3068 3069 3069 3069 3070 3070 3071 3071 3072 3071 3071 3071 3071 3071 3071 3072 3071
3023 3024 3025 3025 3026 3027 3026 3026 3028 3029 3030 3030 3031 3034 3036 3039 3041 3043 3046 3048 3050 3052 3054 3056 3058 3059 3060 3060 3061 3062 3062 3063 3063 3063 3063 3063 3063 3063 3063 3063 3063 3063 3063 3062
3020 3020 3020 3019 3020 3021 3019 3017 3018 3019 3020 3022 3023 3027 3030 3032 3034 3037 3039 3041 3044 3045 3047 3049 3051 3052 3053 3053 3054 3054 3055 3055 3055 3055 3055 3055 3055 3055 3054 3054 3054 3053 3053 3052
3012 3014 3016 3015 3017 3017 3008 3008 3009 3011 3013 3015 3018 3021 3023 3025 3027 3030 3032 3034 3035 3038 3041 3043 3044 3044 3045 3045 3047 3047 3047 3047 3047 3047 3047 3047 3046 3046 3045 3044 3044 3043 3042 3041
3007 3008 3010 3011 3009 3005 3004 3004 3005 3006 3008 3009 3011 3014 3016 3018 3020 3022 3024 3027 3030 3032 3034 3035 3036 3037 3037 3038 3038 3038 3038 3038 3037 3037 3037 3037 3036 3036 3035 3034 3034 3033 3031 3030
3000 3002 3006 3006 3005 3001 2998 2999 3001 3003 3003 3005 3006 3008 3010 3012 3013 3016 3019 3022 3024 3025 3026 3027 3028 3028 3028 3028 3029 3028 3028 3028 3027 3027 3027 3026 3025 3024 3023 3022 3021 3020 3019 3018
2994 2996 2998 3000 2999 2995 2994 2996 2997 3000 3001 2998 3001 3003 3004 3006 3010 3012 3013 3015 3016 3017 3018 3018 3019 3019 3019 3019 3018 3018 3018 3017 3016 3015 3015 3014 3013 3012 3011 3009 3008 3007 3006 3005
2988 2989 2990 2993 2995 2990 2988 2990 2994 2993 2992 2994 2996 2998 2999 3001 3003 3005 3006 3007 3008 3009 3009 3009 3010 3010 3010 3010 3009 3008 3007 3006 3005 3005 3004 3003 3002 3001 2999 2998 2996 2995 2993 2992
2984 2984 2984 2986 2983 2982 2983 2985 2986 2987 2989 2990 2992 2993 2994 2996 2997 2998 2999 3000 3000 3001 3001 3001 3001 3000 3000 3000 2999 2998 2997 2996 2995 2995 2994 2992 2991 2989 2988 2986 2985 2983 2981 2980
2977 2978 2978 2980 2978 2979 2979 2980 2981 2982 2984 2985 2986 2988 2988 2989 2990 2991 2992 2992 2992 2992 2992 2992 2991 2990 2990 2989 2988 2987 2987 2986 2985 2985 2983 2982 2981 2979 2978 2977 2975 2973 2972 2970
2972 2973 2973 2972 2973 2974 2974 2974 2975 2975 2977 2978 2980 2981 2981 2981 2982 2982 2983 2983 2983 2983 2983 2982 2981 2981 2980 2979 2978 2977 2976 2976 2975 2974 2973 2972 2971 2969 2968 2967 2966 2964 2963 2961
2965 2965 2966 2966 2966 2966 2967 2967 2968 2969 2969 2970 2971 2972 2972 2972 2973 2973 2974 2974 2974 2974 2973 2973 2972 2971 2970 2969 2968 2967 2966 2965 2964 2963 2962 2961 2960 2959 2958 2956 2956 2954 2953 2951